Time,TemperatureF,DewpointF,PressureIn,WindDirection,WindDirectionDegrees,WindSpeedMPH,WindSpeedGustMPH,Humidity,HourlyPrecipIn,Conditions,Clouds,dailyrainin,SoftwareType,DateUTC
2013-07-06 00:11:00,59.8,60.0,30.12,ENE,73,1.0,6.0,99,0.00,,,0.01,weatherlink.com 1.10,2013-07-06 04:11:00,
2013-07-06 00:26:00,59.9,60.0,30.11,East,84,0.0,4.0,99,0.00,,,0.01,weatherlink.com 1.10,2013-07-06 04:26:00,
2013-07-06 00:41:00,60.0,60.0,30.11,East,80,0.0,11.0,99,0.00,,,0.01,weatherlink.com 1.10,2013-07-06 04:41:00,
2013-07-06 00:56:00,60.0,60.0,30.11,ESE,115,1.0,8.0,99,0.00,,,0.01,weatherlink.com 1.10,2013-07-06 04:56:00,
2013-07-06 01:11:00,60.2,60.0,30.11,East,94,2.0,10.0,99,0.00,,,0.01,weatherlink.com 1.10,2013-07-06 05:11:00,
2013-07-06 01:26:00,60.3,60.0,30.11,ENE,78,1.0,7.0,99,0.00,,,0.01,weatherlink.com 1.10,2013-07-06 05:26:00,
2013-07-06 01:41:00,60.2,60.0,30.10,ESE,109,0.0,9.0,99,0.00,,,0.01,weatherlink.com 1.10,2013-07-06 05:41:00,
2013-07-06 01:56:00,60.1,60.0,30.09,NE,54,3.0,8.0,99,0.00,,,0.01,weatherlink.com 1.10,2013-07-06 05:56:00,
2013-07-06 02:11:00,60.0,60.0,30.09,ENE,78,1.0,10.0,99,0.00,,,0.01,weatherlink.com 1.10,2013-07-06 06:11:00,
2013-07-06 02:26:00,60.0,60.0,30.09,East,82,0.0,11.0,99,0.00,,,0.01,weatherlink.com 1.10,2013-07-06 06:26:00,
2013-07-06 02:41:00,59.9,60.0,30.09,ESE,103,0.0,13.0,99,0.00,,,0.01,weatherlink.com 1.10,2013-07-06 06:41:00,
2013-07-06 02:56:00,60.0,60.0,30.09,ESE,120,1.0,7.0,99,0.00,,,0.01,weatherlink.com 1.10,2013-07-06 06:56:00,
2013-07-06 03:11:00,60.0,60.0,30.09,ENE,60,2.0,7.0,99,0.00,,,0.01,weatherlink.com 1.10,2013-07-06 07:11:00,
2013-07-06 03:26:00,59.8,60.0,30.08,ENE,65,7.0,8.0,99,0.00,,,0.01,weatherlink.com 1.10,2013-07-06 07:26:00,
2013-07-06 03:41:00,60.0,60.0,30.08,East,88,2.0,8.0,100,0.00,,,0.01,weatherlink.com 1.10,2013-07-06 07:41:00,
2013-07-06 03:56:00,60.0,60.0,30.08,East,92,2.0,11.0,100,0.00,,,0.01,weatherlink.com 1.10,2013-07-06 07:56:00,
2013-07-06 04:11:00,60.0,60.0,30.08,ESE,110,2.0,4.0,100,0.00,,,0.01,weatherlink.com 1.10,2013-07-06 08:11:00,
2013-07-06 04:26:00,59.9,60.0,30.08,East,87,5.0,8.0,99,0.00,,,0.01,weatherlink.com 1.10,2013-07-06 08:26:00,
2013-07-06 04:41:00,60.0,60.0,30.08,ESE,118,1.0,9.0,100,0.00,,,0.01,weatherlink.com 1.10,2013-07-06 08:41:00,
2013-07-06 04:56:00,60.0,60.0,30.08,SW,236,3.0,10.0,100,0.00,,,0.01,weatherlink.com 1.10,2013-07-06 08:56:00,
2013-07-06 05:11:00,59.9,60.0,30.08,East,87,0.0,7.0,99,0.00,,,0.01,weatherlink.com 1.10,2013-07-06 09:11:00,
2013-07-06 05:26:00,59.8,60.0,30.08,NE,49,1.0,11.0,99,0.00,,,0.01,weatherlink.com 1.10,2013-07-06 09:26:00,
2013-07-06 05:41:00,59.8,60.0,30.08,SE,134,0.0,8.0,99,0.00,,,0.01,weatherlink.com 1.10,2013-07-06 09:41:00,
2013-07-06 05:56:00,59.6,60.0,30.08,East,90,3.0,9.0,100,0.00,,,0.01,weatherlink.com 1.10,2013-07-06 09:56:00,
2013-07-06 06:11:00,59.7,60.0,30.09,ENE,59,2.0,5.0,99,0.00,,,0.01,weatherlink.com 1.10,2013-07-06 10:11:00,
2013-07-06 06:26:00,59.7,60.0,30.09,ENE,78,0.0,7.0,99,0.00,,,0.01,weatherlink.com 1.10,2013-07-06 10:26:00,
2013-07-06 06:41:00,59.6,60.0,30.09,SE,136,0.0,6.0,100,0.00,,,0.01,weatherlink.com 1.10,2013-07-06 10:41:00,
2013-07-06 06:56:00,59.5,60.0,30.09,East,94,2.0,6.0,100,0.00,,,0.01,weatherlink.com 1.10,2013-07-06 10:56:00,
2013-07-06 07:11:00,59.4,59.0,30.09,NE,48,0.0,7.0,100,0.00,,,0.00,weatherlink.com 1.10,2013-07-06 11:11:00,
2013-07-06 07:26:00,59.3,59.0,30.09,ENE,67,1.0,13.0,99,0.00,,,0.00,weatherlink.com 1.10,2013-07-06 11:26:00,
2013-07-06 07:41:00,59.3,59.0,30.10,ESE,103,1.0,8.0,99,0.00,,,0.00,weatherlink.com 1.10,2013-07-06 11:41:00,
2013-07-06 07:56:00,59.3,59.0,30.10,ENE,73,2.0,7.0,99,0.00,,,0.00,weatherlink.com 1.10,2013-07-06 11:56:00,
2013-07-06 08:11:00,59.0,59.0,30.11,East,88,0.0,7.0,100,0.00,,,0.00,weatherlink.com 1.10,2013-07-06 12:11:00,
2013-07-06 08:26:00,59.1,59.0,30.11,East,84,0.0,5.0,99,0.00,,,0.00,weatherlink.com 1.10,2013-07-06 12:26:00,
2013-07-06 08:41:00,58.8,59.0,30.11,East,99,2.0,7.0,100,0.00,,,0.00,weatherlink.com 1.10,2013-07-06 12:41:00,
2013-07-06 08:56:00,58.9,59.0,30.11,ENE,69,1.0,10.0,100,0.00,,,0.00,weatherlink.com 1.10,2013-07-06 12:56:00,
2013-07-06 09:11:00,59.2,59.0,30.11,ENE,75,2.0,7.0,100,0.00,,,0.00,weatherlink.com 1.10,2013-07-06 13:11:00,
2013-07-06 09:26:00,59.7,60.0,30.11,ENE,65,4.0,8.0,100,0.00,,,0.00,weatherlink.com 1.10,2013-07-06 13:26:00,
2013-07-06 09:41:00,59.3,59.0,30.11,ENE,78,2.0,10.0,99,0.00,,,0.00,weatherlink.com 1.10,2013-07-06 13:41:00,
2013-07-06 09:56:00,59.9,60.0,30.11,East,86,6.0,6.0,99,0.00,,,0.00,weatherlink.com 1.10,2013-07-06 13:56:00,
2013-07-06 10:11:00,59.9,60.0,30.11,East,93,2.0,7.0,99,0.00,,,0.00,weatherlink.com 1.10,2013-07-06 14:11:00,
2013-07-06 10:26:00,59.6,60.0,30.11,East,90,5.0,9.0,100,0.00,,,0.00,weatherlink.com 1.10,2013-07-06 14:26:00,
2013-07-06 10:41:00,60.3,60.0,30.11,East,82,2.0,3.0,100,0.00,,,0.00,weatherlink.com 1.10,2013-07-06 14:41:00,
2013-07-06 10:56:00,60.8,61.0,30.11,NE,53,1.0,6.0,100,0.00,,,0.00,weatherlink.com 1.10,2013-07-06 14:56:00,
2013-07-06 11:11:00,60.9,61.0,30.11,ENE,66,1.0,7.0,100,0.00,,,0.00,weatherlink.com 1.10,2013-07-06 15:11:00,
2013-07-06 11:26:00,62.3,62.0,30.11,ENE,75,2.0,10.0,100,0.00,,,0.00,weatherlink.com 1.10,2013-07-06 15:26:00,
2013-07-06 11:41:00,61.0,61.0,30.12,East,98,1.0,7.0,100,0.00,,,0.00,weatherlink.com 1.10,2013-07-06 15:41:00,
2013-07-06 11:56:00,62.1,62.0,30.12,ENE,60,1.0,8.0,100,0.00,,,0.00,weatherlink.com 1.10,2013-07-06 15:56:00,
2013-07-06 12:26:00,63.8,64.0,30.11,ENE,71,5.0,9.0,99,0.00,,,0.00,weatherlink.com 1.10,2013-07-06 16:26:00,
2013-07-06 12:41:00,64.0,63.0,30.11,NE,47,1.0,5.0,97,0.00,,,0.00,weatherlink.com 1.10,2013-07-06 16:41:00,
2013-07-06 13:42:00,61.5,61.0,30.10,NE,51,2.0,8.0,98,0.00,,,0.00,weatherlink.com 1.10,2013-07-06 17:42:00,
2013-07-06 13:57:00,62.0,62.0,30.09,East,88,0.0,5.0,98,0.00,,,0.00,weatherlink.com 1.10,2013-07-06 17:57:00,
2013-07-06 14:12:00,61.4,61.0,30.09,East,80,0.0,10.0,98,0.00,,,0.00,weatherlink.com 1.10,2013-07-06 18:12:00,
2013-07-06 14:57:00,63.1,63.0,30.08,East,82,2.0,6.0,99,0.00,,,0.00,weatherlink.com 1.10,2013-07-06 18:57:00,
2013-07-06 15:12:00,63.5,63.0,30.08,ESE,113,0.0,7.0,98,0.00,,,0.00,weatherlink.com 1.10,2013-07-06 19:12:00,
2013-07-06 15:27:00,63.1,62.0,30.08,ENE,73,0.0,5.0,97,0.00,,,0.00,weatherlink.com 1.10,2013-07-06 19:27:00,
2013-07-06 15:57:00,63.1,63.0,30.07,East,96,2.0,9.0,98,0.00,,,0.00,weatherlink.com 1.10,2013-07-06 19:57:00,
2013-07-06 16:12:00,63.8,63.0,30.06,ENE,71,0.0,4.0,97,0.00,,,0.00,weatherlink.com 1.10,2013-07-06 20:12:00,
2013-07-06 16:27:00,63.3,62.0,30.06,East,94,1.0,5.0,96,0.00,,,0.00,weatherlink.com 1.10,2013-07-06 20:27:00,
2013-07-06 16:42:00,63.1,62.0,30.05,East,84,0.0,8.0,97,0.00,,,0.00,weatherlink.com 1.10,2013-07-06 20:42:00,
2013-07-06 16:57:00,64.2,63.0,30.05,ESE,107,3.0,6.0,97,0.00,,,0.00,weatherlink.com 1.10,2013-07-06 20:57:00,
2013-07-06 17:27:00,63.8,63.0,30.05,SE,128,0.0,4.0,97,0.00,,,0.00,weatherlink.com 1.10,2013-07-06 21:27:00,
2013-07-06 18:12:00,63.5,63.0,30.05,SSE,148,0.0,4.0,97,0.00,,,0.00,weatherlink.com 1.10,2013-07-06 22:12:00,
2013-07-06 18:27:00,62.8,62.0,30.04,ESE,105,0.0,10.0,97,0.00,,,0.00,weatherlink.com 1.10,2013-07-06 22:27:00,
2013-07-06 19:27:00,62.3,62.0,30.05,East,95,1.0,5.0,99,0.00,,,0.00,weatherlink.com 1.10,2013-07-06 23:27:00,
2013-07-06 19:42:00,62.4,62.0,30.06,ESE,111,0.0,6.0,99,0.00,,,0.00,weatherlink.com 1.10,2013-07-06 23:42:00,
2013-07-06 19:57:00,62.3,62.0,30.06,East,92,2.0,4.0,99,0.00,,,0.00,weatherlink.com 1.10,2013-07-06 23:57:00,
2013-07-06 20:12:00,62.1,62.0,30.07,WSW,255,0.0,4.0,99,0.00,,,0.00,weatherlink.com 1.10,2013-07-07 00:12:00,
2013-07-06 20:27:00,61.6,61.0,30.08,East,90,1.0,7.0,99,0.00,,,0.00,weatherlink.com 1.10,2013-07-07 00:27:00,
2013-07-06 20:42:00,61.5,61.0,30.07,ENE,74,0.0,3.0,99,0.00,,,0.00,weatherlink.com 1.10,2013-07-07 00:42:00,
2013-07-06 20:57:00,61.1,61.0,30.07,NNE,32,0.0,6.0,99,0.00,,,0.00,weatherlink.com 1.10,2013-07-07 00:57:00,
2013-07-06 21:42:00,60.7,61.0,30.07,ENE,78,1.0,9.0,99,0.00,,,0.00,weatherlink.com 1.10,2013-07-07 01:42:00,
2013-07-06 21:57:00,60.7,61.0,30.07,ENE,69,2.0,6.0,99,0.00,,,0.00,weatherlink.com 1.10,2013-07-07 01:57:00,
2013-07-06 22:12:00,60.8,61.0,30.07,ENE,74,0.0,3.0,99,0.00,,,0.00,weatherlink.com 1.10,2013-07-07 02:12:00,
2013-07-06 22:57:00,60.7,61.0,30.08,NE,42,0.0,8.0,99,0.00,,,0.00,weatherlink.com 1.10,2013-07-07 02:57:00,
2013-07-06 23:12:00,60.7,61.0,30.08,ENE,63,1.0,3.0,99,0.00,,,0.00,weatherlink.com 1.10,2013-07-07 03:12:00,
2013-07-06 23:27:00,60.7,61.0,30.08,ENE,62,0.0,0.0,99,0.00,,,0.00,weatherlink.com 1.10,2013-07-07 03:27:00,